{"data":{"norad_id":57376,"epoch":"2026-09-20T05:38:58.294752Z","epoch_age_seconds":147085,"freshness":"FRESH","line1":"1 57376U 23099BA  26263.23539693  .00009096  00000+0  33961-3 0  9998","line2":"2 57376  42.9971 219.4826 0001135 243.0506 117.0230 15.27584379175990","mean_motion":15.27584379,"eccentricity":0.0001135,"inclination_deg":42.9971,"raan_deg":219.4826,"arg_perigee_deg":243.0506,"mean_anomaly_deg":117.023,"bstar":0.00033961,"rev_number":17599,"period_min":94.266478486947,"perigee_km":482.25724063598,"apogee_km":483.8147269033,"semimajor_km":6861.1729837696,"source":"CELESTRAK","updated_at":"2026-09-21T09:00:33.621589Z"}}